Regional Weather Roundup
Issued by NWS Bismarck, ND

Home | Current Version | Previous Version | Text Only | Print | Product List | Glossary On
Versions: 1 2 3 4 5 6 7 8 9 10 11 12 13 14 15 16 17 18 19 20 21 22 23 24 25 26 27 28 29 30 31 32 33 34 35 36 37 38 39 40 41 42 43 44 45 46 47 48 49 50
000
ASUS43 KBIS 221802
RWRBIS

NWR BROADCAST TEXT
NATIONAL WEATHER SERVICE BISMARCK ND
1200 PM CST SUN JAN 22 2017

NOTE: "FAIR" INDICATES FEW OR NO CLOUDS BELOW 12,000 FEET WITH NO
SIGNIFICANT WEATHER AND/OR OBSTRUCTIONS TO VISIBILITY.


CITY           SKY/WX    TMP DP  RH WIND       PRES   REMARKS
WILLISTON      CLOUDY    30  27  88 W15       29.81S WCI  19
MINOT          CLOUDY    33  30  88 W8        29.76R
MINOT AFB      CLOUDY    31  28  91 W10       29.75R
BISMARCK       CLOUDY    33  29  85 NW10      29.81R
DICKINSON      LGT SNOW  25  23  92 NW20      29.79S FOG     WCI  11
GARRISON         N/A     31  28  89 W12       29.77S
HETTINGER ARPT CLOUDY    28  24  85 NW17      29.83S WCI  16
JAMESTOWN      CLOUDY    31  29  92 NW16      29.74S FOG     WCI  20
CARRINGTON     CLOUDY    32  28  86 NW16      29.76S
HAZEN          CLOUDY   N/A N/A N/A W9        29.81F
MANDAN         CLOUDY    28  28 100 W14       29.81R WCI  17
STANLEY        CLOUDY    30  30 100 W13       29.78S
WATFORD CITY   CLOUDY    28  27  93 W12       29.82R WCI  18
$$

CITY           SKY/WX    TMP DP  RH WIND       PRES   REMARKS
GRAND FORKS    CLOUDY    35  29  78 W8        29.74S
GRAND FORKS AF CLOUDY    34  29  82 NW8       29.74S
DEVILS LAKE    CLOUDY    30  27  88 NW13      29.73R WCI  20
FARGO          CLOUDY    35  33  92 W6        29.75F FOG
GRAFTON        MIX PCPN  34  34 100 SW7       29.75S
GWINNER        CLOUDY    34  32  93 W8        29.76F
$$

CITY           SKY/WX    TMP DP  RH WIND       PRES   REMARKS
ABERDEEN       CLOUDY    29  24  82 W10       29.81S WCI  20
MOBRIDGE       CLOUDY    25  20  81 W10       29.80S WCI  15
BUFFALO          N/A     27  21  78 NW13      29.77R WCI  16
RAPID CITY     FAIR      39  25  57 N5        29.85S
GLASGOW        CLOUDY    30  24  78 W13       29.84S WCI  20
SIDNEY         CLOUDY    30  26  85 W10       29.85R
WOLF POINT     CLOUDY    31  26  82 W12       29.85S
GLENDIVE       CLOUDY    29  25  85 NW8       29.86S
MILES CITY     SNOW      17  14  88 W6        29.89R VSB<1/4 WCI   9
BAKER          FOG       24  22  91 NW14      29.84S VSB 1   WCI  12
$$

CITY           SKY/WX    TMP DP  RH WIND       PRES   REMARKS
BILLINGS       FAIR      29  18  63 SW13      29.86R WCI  19
GREAT FALLS    FAIR      29  22  75 E7        29.81S
REGINA         CLOUDY    27  23  86 NW16      29.75R WCI  14
$$





USA.gov is the U.S. government's official web portal to all federal, state and local government web resources and services.